This demonstration page uses our WeatherBlox Daily Observations layout. Learn more.

Left ArrowRight Arrow

Hourly Observations for December 4, 2022

Temp ( °F °C ) Dew Point ( °F °C ) Humidity (%) Winds ( mph kmh ) Pressure ( in mb ) Visibility ( mi km ) Precip ( " mm )
12:53 am 00:53 Mostly Clear 44 6.7 28 -2.2 53 53 NE 5 7 30.33 1027 10 16 0.00 0.00
1:53 am 01:53 Cloudy 45 7.2 26 -3.3 47 47 E 6 9 30.29 1026 10 16 0.00 0.00
2:53 am 02:53 Partly Cloudy 44 6.7 32 0 62 62 NNW 6 9 30.29 1026 10 16 0.01 0.13
3:53 am 03:53 Clear 43 6.1 33 0.6 68 68 NNW 5 7 30.28 1025 10 16 0.00 0.00
4:53 am 04:53 Partly Cloudy 43 6.1 34 1.1 70 70 Calm 30.24 1024 10 16 0.00 0.00
5:53 am 05:53 Clear 41 5 35 1.7 79 79 Calm 30.25 1025 10 16 0.00 0.00
6:53 am 06:53 Clear 39 3.9 34 1.1 82 82 WSW 5 7 30.25 1025 10 16 0.00 0.00
7:53 am 07:53 Sunny 39 3.9 34 1.1 82 82 SSW 3 6 30.26 1025 10 16 0.00 0.00
8:53 am 08:53 Sunny 43 6.1 35 1.7 73 73 Calm 30.27 1025 10 16 0.00 0.00
9:53 am 09:53 Sunny 48 8.9 29 -1.7 47 47 Calm 30.25 1024 10 16 0.00 0.00
10:53 am 10:53 Sunny 50 10 28 -2.2 42 42 Calm 30.23 1024 10 16 0.00 0.00
11:53 am 11:53 Sunny 54 12.2 28 -2.2 37 37 VRB 3 6 30.18 1022 10 16 0.00 0.00
12:53 pm 12:53 Sunny 58 14.4 29 -1.7 33 33 SSW 7 11 30.12 1020 10 16 0.00 0.00
1:53 pm 13:53 Sunny 60 15.6 30 -1.1 32 32 SW 6 9 30.06 1018 10 16 0.00 0.00
2:53 pm 14:53 Sunny 61 16.1 31 -0.6 32 32 SSW 3 6 30.03 1017 10 16 0.00 0.00
3:53 pm 15:53 Sunny 61 16.1 32 0 33 33 SSW 5 7 30.01 1016 10 16 0.00 0.00
4:53 pm 16:53 Sunny 61 16.1 34 1.1 36 36 SSW 5 7 30.00 1016 10 16 0.00 0.00
5:53 pm 17:53 Clear 58 14.4 36 2.2 44 44 SE 3 6 30.00 1016 10 16 0.00 0.00
6:53 pm 18:53 Clear 56 13.3 36 2.2 47 47 S 8 13 30.01 1016 10 16 0.00 0.00
7:53 pm 19:53 Clear 54 12.2 38 3.3 54 54 Calm 30.02 1017 10 16 0.00 0.00
8:53 pm 20:53 Clear 52 11.1 38 3.3 59 59 SE 3 6 30.01 1016 10 16 0.00 0.00
9:53 pm 21:53 Clear 49 9.4 39 3.9 68 68 Calm 30.01 1016 10 16 0.00 0.00
10:53 pm 22:53 Clear 48 8.9 38 3.3 68 68 SW 6 9 30.01 1016 10 16 0.00 0.00
11:53 pm 23:53 Clear 48 8.9 38 3.3 68 68 SSW 3 6 29.97 1015 10 16 0.00 0.00

Powered by AerisWeather